Weather History for Binghamton, NY

Change the Weather History Date:

Wednesday, September 11, 2013

  Actual Average Record
Temperature  
Mean Temperature 77 °F 61 °F  
Max Temperature 88 °F 70 °F 88 °F (2013)
Min Temperature 66 °F 53 °F 38 °F (1995)
Degree Days  
Heating Degree Days 0 5  
Month to date heating degree days 47 41  
Since 1 July heating degree days 98 104  
Cooling Degree Days 12 1  
Month to date cooling degree days 37 18  
Year to date cooling degree days 464 366  
Growing Degree Days 27 (Base 50)    
Moisture  
Dew Point 67 °F    
Average Humidity 73    
Maximum Humidity 93    
Minimum Humidity 53    
Precipitation  
Precipitation 0.77 in 0.12 in 2.15 in (1968)
Month to date precipitation 1.67 1.28  
Year to date precipitation 31.96 27.49  
Snow  
Snow 0.00 in 0.00 in 0.00 in (2002)
Month to date snowfall 0.0 0.0  
Since 1 July snowfall 0.0 0.0  
Since 1 September snowfall 0.0 0.0  
Snow Depth 0.00 in    
Sea Level Pressure  
Sea Level Pressure 30.08 in    
Wind  
Wind Speed 7 mph (SSW)    
Max Wind Speed 21 mph    
Max Gust Speed 28 mph    
Visibility 6 miles    
Events Fog , Rain , Thunderstorm    
T = Trace of Precipitation, MM = Missing Value Source: NWS Daily Summary

Daily Weather History Graph

Daily Weather History Graph

Search for Another Location

Airport:

Trip Planner

Search our weather history database for the weather conditions in past years. The results will help you decide how hot, cold, wet, or windy it might be!

Date:

Astronomy

Sep. 11, 2013 Rise Set
Actual Time 6:39 AM EDT 7:20 PM EDT
Civil Twilight 6:11 AM EDT 7:48 PM EDT
Nautical Twilight 5:38 AM EDT 8:21 PM EDT
Astronomical Twilight 5:03 AM EDT 8:56 PM EDT
Moon 1:12 PM EDT (9/11) 11:06 PM EDT (9/11)
Length of Visible Light 13h 36m
Length of Day
12h 40m
Waxing Crescent, 38% of the Moon is Illuminated
Sep 11
Waxing Crescent
Sep 12
First Quarter
Sep 19
Full
Sep 26
Last Quarter
Oct 4
New

Hourly Weather History & Observations

Time (EDT) Temp. Heat Index Dew Point Humidity Pressure Visibility Wind Dir Wind Speed Gust Speed Precip Events Conditions
12:53 AM 75.9 °F - 69.1 °F 79% 30.09 in 7.0 mi SW 8.1 mph - N/A   Clear
1:53 AM 75.9 °F - 69.1 °F 79% 30.08 in 7.0 mi SW 9.2 mph - N/A   Clear
2:53 AM 75.0 °F - 69.1 °F 82% 30.08 in 6.0 mi SW 8.1 mph - N/A   Haze
3:53 AM 73.9 °F - 69.1 °F 85% 30.08 in 5.0 mi SW 8.1 mph - N/A   Haze
4:53 AM 73.0 °F - 70.0 °F 90% 30.08 in 4.0 mi SW 8.1 mph - N/A   Clear
5:53 AM 73.0 °F - 70.0 °F 90% 30.10 in 4.0 mi SW 8.1 mph - N/A   Clear
6:53 AM 73.0 °F - 70.0 °F 90% 30.11 in 3.0 mi SW 8.1 mph - N/A   Clear
7:53 AM 73.9 °F - 71.1 °F 91% 30.11 in 3.0 mi WSW 8.1 mph - N/A   Clear
8:00 AM 75.2 °F - 71.6 °F 89% 30.15 in 2.5 mi WSW 8.1 mph - N/A   Clear
8:37 AM 75.2 °F - 71.6 °F 89% 30.15 in 3.0 mi SW 8.1 mph - N/A   Haze
8:53 AM 77.0 °F - 71.1 °F 82% 30.11 in 3.0 mi WSW 6.9 mph - N/A   Haze
9:53 AM 79.0 °F - 72.0 °F 79% 30.11 in 4.0 mi SW 8.1 mph - N/A   Haze
10:53 AM 82.0 °F 86.7 °F 72.0 °F 71% 30.10 in 5.0 mi WSW 8.1 mph - N/A   Haze
11:53 AM 84.0 °F 89.6 °F 72.0 °F 67% 30.09 in 6.0 mi WSW 8.1 mph - N/A   Haze
12:53 PM 86.0 °F 91.5 °F 71.1 °F 61% 30.07 in 7.0 mi South 5.8 mph - N/A   Clear
1:53 PM 88.0 °F 91.4 °F 68.0 °F 51% 30.05 in 10.0 mi SW 8.1 mph - N/A   Clear
2:53 PM 84.0 °F 87.0 °F 68.0 °F 58% 30.03 in 9.0 mi SW 5.8 mph - N/A   Clear
3:53 PM 82.0 °F 84.9 °F 68.0 °F 62% 30.02 in 8.0 mi South 9.2 mph - N/A   Mostly Cloudy
4:24 PM 73.4 °F - 64.4 °F 73% 30.09 in 2.5 mi NW 13.8 mph 24.2 mph 0.01 in Rain , Thunderstorm Thunderstorms and Rain
4:33 PM 71.6 °F - 64.4 °F 78% 30.09 in 5.0 mi NNW 17.3 mph 25.3 mph 0.07 in Rain , Thunderstorm Light Thunderstorms and Rain
4:51 PM 69.8 °F - 66.2 °F 88% 30.11 in 1.5 mi NNW 12.7 mph 20.7 mph 0.08 in Rain , Thunderstorm Light Thunderstorms and Rain
4:53 PM 69.1 °F - 66.9 °F 93% 30.09 in 1.2 mi NNW 11.5 mph 20.7 mph 0.11 in Rain , Thunderstorm Heavy Thunderstorms and Rain
5:10 PM 69.8 °F - 66.2 °F 88% 30.13 in 0.5 mi SSW 17.3 mph 27.6 mph 0.29 in Fog , Rain , Thunderstorm Heavy Thunderstorms and Rain
5:23 PM 69.8 °F - 66.2 °F 88% 30.12 in 1.0 mi WSW 10.4 mph - 0.62 in Rain , Thunderstorm Heavy Thunderstorms and Rain
5:27 PM 69.8 °F - 66.2 °F 88% 30.12 in 3.0 mi WSW 6.9 mph - 0.63 in Rain , Thunderstorm Light Thunderstorms and Rain
5:53 PM 69.1 °F - 64.0 °F 84% 30.05 in 10.0 mi Calm Calm - 0.64 in Rain , Thunderstorm Light Thunderstorms and Rain
6:20 PM 68.0 °F - 64.4 °F 88% 30.08 in 8.0 mi SSE 6.9 mph - 0.02 in Rain Light Rain
6:53 PM 68.0 °F - 66.0 °F 93% 30.09 in 7.0 mi SSE 11.5 mph 21.9 mph 0.02 in   Mostly Cloudy
7:20 PM 69.8 °F - 66.2 °F 88% 30.10 in 7.0 mi SSE 13.8 mph 19.6 mph 0.00 in Rain , Thunderstorm Light Thunderstorms and Rain
7:36 PM 69.8 °F - 66.2 °F 88% 30.07 in 10.0 mi SE 9.2 mph - 0.00 in   Scattered Clouds
7:53 PM 68.0 °F - 66.0 °F 93% 30.04 in 10.0 mi SSE 4.6 mph - 0.00 in   Clear
8:53 PM 68.0 °F - 64.9 °F 90% 30.07 in 10.0 mi South 4.6 mph - N/A   Scattered Clouds
9:53 PM 66.9 °F - 64.9 °F 93% 30.07 in 7.0 mi ESE 4.6 mph - N/A   Scattered Clouds
10:15 PM 66.2 °F - 64.4 °F 94% 30.10 in 2.5 mi South 4.6 mph - N/A   Scattered Clouds
10:30 PM 66.2 °F - 64.4 °F 94% 30.09 in 5.0 mi Calm Calm - N/A   Partly Cloudy
10:45 PM 68.0 °F - 64.4 °F 88% 30.08 in 8.0 mi SW 5.8 mph - N/A Thunderstorm Partly Cloudy
10:53 PM 68.0 °F - 64.9 °F 90% 30.04 in 7.0 mi WSW 4.6 mph - N/A Thunderstorm Thunderstorm
11:14 PM 68.0 °F - 64.4 °F 88% 30.06 in 8.0 mi SSW 3.5 mph - 0.00 in Rain Light Rain
11:49 PM 66.2 °F - 64.4 °F 94% 30.01 in 2.5 mi SSE 5.8 mph - 0.00 in   Partly Cloudy
11:50 PM 66.9 °F - 64.9 °F 93% 29.97 in 2.5 mi SSE 5.8 mph - 0.00 in   Partly Cloudy
11:54 PM 66.2 °F - 64.4 °F 94% 30.01 in 1.0 mi SSE 5.8 mph - N/A   Mist